Flag for Austria Weather past 2 weeks in Tulln an der Donau, Lower Austria, Austria

Now
64 °F

Broken clouds.


Feels Like: 64 °F
Forecast: 51 / 61 °F
Wind: 12 mph from Northwest

Location: Tulln Airport

Current Time: May 25, 2015 at 12:11:09 PM

Latest Report: May 25, 2015 at 10:50 AM


Visibility: 6 mi

Pressure: 29.92 "Hg

Humidity: 68%

Dew point: 54 °F

Location of Tulln an der DonauLocation

Historic Weather in Tulln an der Donau — Graph

°F

Tulln an der Donau temperature yesterday

Maximum temperature yesterday: 55 °F (at 2:50 PM)
Minimum temperature yesterday: 52 °F (at 5:50 AM)
Average temperature yesterday: 54 °F

Past Weeks' High & Low Weather Summary

 TemperatureHumidityPressure
High79 °F (May 12, 2:50 PM)100% (May 14, 6:50 AM)30.42 "Hg (May 14, 6:50 AM)
Low41 °F (May 12, 5:50 AM)26% (May 12, 2:50 PM)29.71 "Hg (May 19, 4:50 AM)
Average60 °F73%30.05 "Hg
* Reported May 10 10:50 AM — May 25 10:50 AM, Tulln an der Donau, Weather by CustomWeather, © 2015

Note: Actual official high and low records may vary slightly from our data, if they occured in-between our weather recording intervals... More about our weather records

Advertising

Tulln an der Donau weather history for previous 24 hours

 ConditionsComfort  
Time TempWeatherWind HumidityBarometerVisibility
10:50 AM
Mon, May 25
64 °FBroken clouds.12 mph68%29.92 "Hg6 mi
9:50 AM63 °FBroken clouds.8 mph77%29.95 "Hg6 mi
8:50 AM59 °FBroken clouds.12 mph88%29.95 "Hg5 mi
7:50 AM55 °FPartly sunny.8 mph88%29.98 "Hg4 mi
6:50 AM54 °FPartly sunny.9 mph94%29.98 "Hg4 mi
5:50 AM52 °FPartly cloudy.7 mph100%29.98 "Hg4 mi
10:50 PM
Sun, May 24
54 °FPartly cloudy.7 mph94%30.04 "Hg7 mi
9:50 PM54 °FPartly cloudy.7 mph94%30.07 "Hg7 mi
8:50 PM54 °FMostly cloudy.10 mph100%30.04 "Hg7 mi
7:50 PM55 °FBroken clouds.12 mph94%30.04 "Hg7 mi
6:50 PM55 °FPartly sunny.8 mph94%30.04 "Hg7 mi
5:50 PM55 °FPartly sunny.8 mph94%30.04 "Hg7 mi
4:50 PM55 °FDrizzle. Broken clouds.10 mph94%30.07 "Hg6 mi
3:50 PM55 °FBroken clouds.7 mph100%30.07 "Hg6 mi
2:50 PM55 °FDrizzle. Broken clouds.9 mph100%30.07 "Hg3 mi
1:50 PM54 °FDrizzle. Broken clouds.9 mph100%30.07 "Hg4 mi
12:50 PM54 °FDrizzle. Broken clouds.8 mph100%30.07 "Hg4 mi
Weather by CustomWeather, © 2015

See weather overviewHow to use our weather pages